Find PRAETORIAN SDA_507

NORAD ID: 100065 Int'l Des: 2026-163G Country: USA operational

現在のビュー

3D地球を読み込み中...

About PRAETORIAN SDA_507

PRAETORIAN SDA_507 (NORAD 100065) is a satellite of USA.

次回通過

Passes for default location (London). Set your location on the main map for personalized predictions.

高度履歴

Loading altitude history...

軌道要素

1 A0065U 26206.56616759 .00000215 00000-0 17843-3 0 9996
2 A0065 81.4862 301.7600 0012930 188.0014 172.0940 13.85371801 1210
Epoch: Jul 25, 2026 • Age: 11 hours

現在のステータス

高度 940.6 km
遠地点 / 近地点 N/A
速度 7.39 km/s
衛星直下点 28.03°N, 162.28°E
タイプ other

Most Searched